Location: St. Louis
(38.6270°N, 90.1994°W)
Time: 20:16:36
(UTC-06:00)

Altair - Pass Details

Date: 30 November 2021
Orbit: 1501 x 1683 km, 47.2° (Epoch: 26 January)

Event Time Altitude Azimuth Distance (km) Brightness Sun altitude
Rises 21:01:18 0° 296° (WNW) 4,666 10.6 -50.4°
Reaches altitude 10° 21:04:25 10° 299° (WNW) 3,670 9.9 -50.9°
Enters shadow 21:08:06 27° 307° (NW) 2,559 8.8 -51.6°
